Sylvania, GA

2:54 PM EDT on April 25, 2017 (GMT -0400)
Plantation

Weather History for KJYL - January, 2014

Change the Weather History Date:

Wednesday, January 8, 2014

  Actual Average (KSAV) Record (KSAV)
Temperature  
Mean Temperature 34 °F -  
Max Temperature 48 °F 59 °F 79 °F (1989)
Min Temperature 20 °F 39 °F 15 °F (1970)
Degree Days  
Heating Degree Days 31    
Moisture  
Dew Point 14 °F    
Average Humidity 50    
Maximum Humidity 90    
Minimum Humidity 16    
Precipitation  
Precipitation 0.00 in - - ()
Sea Level Pressure  
Sea Level Pressure 30.53 in    
Wind  
Wind Speed 2 mph (East)    
Max Wind Speed 8 mph    
Max Gust Speed -    
Visibility 10 miles    
Events      
Averages and records for this station are not official NWS values.
T = Trace of Precipitation, MM = Missing Value Source: NWS Daily Summary

Daily Weather History Graph

Daily Weather History Graph

Search for Another Location

Airport or City:

Trip Planner

Search our weather history database for the weather conditions in past years. The results will help you decide how hot, cold, wet, or windy it might be!

Date:

Astronomy

Jan. 08, 2014 Rise Set
Actual Time 7:29 AM EST 5:37 PM EST
Civil Twilight 7:02 AM EST 6:04 PM EST
Nautical Twilight 6:31 AM EST 6:34 PM EST
Astronomical Twilight 6:02 AM EST 7:04 PM EST
Moon 12:18 PM EST (1/8) 12:45 AM EST (1/8)
Length of Visible Light 11h 01m
Length of Day
10h 07m
First Quarter, 56% of the Moon is Illuminated
Jan 8
First Quarter
Jan 15
Full
Jan 24
Last Quarter
Jan 30
New
Feb 6
First Quarter

Hourly Weather History & Observations

Time (EST) Temp. Windchill Dew Point Humidity Pressure Visibility Wind Dir Wind Speed Gust Speed Precip Events Conditions
12:15 AM 23.4 °F - 19.4 °F 85% 30.53 in 10.0 mi Calm Calm - N/A   Clear
12:35 AM 23.5 °F - 19.9 °F 86% 30.53 in 10.0 mi Calm Calm - N/A   Clear
12:55 AM 23.5 °F - 20.1 °F 87% 30.53 in 10.0 mi Calm Calm - N/A   Clear
1:15 AM 23.0 °F - 19.9 °F 88% 30.53 in 10.0 mi Calm Calm - N/A   Clear
1:35 AM 23.5 °F - 20.3 °F 87% 30.53 in 10.0 mi Calm Calm - N/A   Clear
1:55 AM 22.6 °F - 19.8 °F 89% 30.53 in 10.0 mi Calm Calm - N/A   Clear
2:15 AM 22.3 °F - 19.6 °F 89% 30.53 in 10.0 mi Calm Calm - N/A   Clear
2:35 AM 21.9 °F - 19.0 °F 89% 30.53 in 10.0 mi Calm Calm - N/A   Clear
2:55 AM 22.1 °F - 19.4 °F 89% 30.53 in 10.0 mi Calm Calm - N/A   Clear
3:15 AM 21.6 °F - 18.9 °F 89% 30.53 in 10.0 mi Calm Calm - N/A   Clear
3:35 AM 21.2 °F - 18.7 °F 90% 30.53 in 10.0 mi Calm Calm - N/A   Clear
3:55 AM 21.9 °F - 19.4 °F 90% 30.53 in 10.0 mi Calm Calm - N/A   Clear
4:15 AM 22.1 °F - 19.4 °F 89% 30.53 in 10.0 mi Calm Calm - N/A   Clear
4:35 AM 22.3 °F - 19.4 °F 89% 30.53 in 10.0 mi Calm Calm - N/A   Clear
4:55 AM 21.7 °F - 18.9 °F 89% 30.52 in 10.0 mi Calm Calm - N/A   Clear
5:15 AM 22.1 °F - 19.0 °F 88% 30.52 in 10.0 mi Calm Calm - N/A   Clear
5:35 AM 22.1 °F - 18.9 °F 87% 30.52 in 10.0 mi Calm Calm - N/A   Clear
5:55 AM 21.0 °F - 17.6 °F 87% 30.53 in 10.0 mi Calm Calm - N/A   Clear
6:15 AM 20.3 °F - 17.4 °F 89% 30.53 in 10.0 mi Calm Calm - N/A   Clear
6:35 AM 20.1 °F - 17.2 °F 89% 30.53 in 10.0 mi Calm Calm - N/A   Clear
6:55 AM 20.8 °F - 17.8 °F 88% 30.53 in 10.0 mi Calm Calm - N/A   Clear
7:15 AM 21.6 °F - 18.1 °F 87% 30.54 in 10.0 mi Calm Calm - N/A   Clear
7:35 AM 20.7 °F - 17.6 °F 88% 30.55 in 10.0 mi Calm Calm - N/A   Clear
7:55 AM 20.8 °F - 17.6 °F 87% 30.56 in 10.0 mi Calm Calm - N/A   Clear
8:15 AM 22.5 °F - 17.6 °F 82% 30.57 in 10.0 mi Calm Calm - N/A   Clear
8:35 AM 25.5 °F - 17.4 °F 71% 30.58 in 10.0 mi Calm Calm - N/A   Clear
8:55 AM 28.2 °F 24.4 °F 17.4 °F 64% 30.59 in 10.0 mi ENE 3.5 mph - N/A   Clear
9:15 AM 30.2 °F 25.4 °F 15.6 °F 55% 30.59 in 10.0 mi ENE 4.6 mph - N/A   Clear
9:35 AM 31.6 °F 26.0 °F 14.7 °F 50% 30.60 in 10.0 mi East 5.8 mph - N/A   Clear
9:55 AM 32.4 °F 25.3 °F 12.0 °F 43% 30.60 in 10.0 mi ENE 8.1 mph - N/A   Clear
10:15 AM 33.8 °F 27.0 °F 11.5 °F 40% 30.61 in 10.0 mi East 8.1 mph - N/A   Clear
10:35 AM 35.1 °F 29.3 °F 7.9 °F 32% 30.61 in 10.0 mi East 6.9 mph - N/A   Clear
10:55 AM 36.3 °F 30.8 °F 7.2 °F 30% 30.60 in 10.0 mi East 6.9 mph - N/A   Clear
11:15 AM 37.8 °F 34.2 °F 8.4 °F 30% 30.59 in 10.0 mi ENE 4.6 mph - N/A   Clear
11:35 AM 38.8 °F 35.4 °F 6.8 °F 27% 30.58 in 10.0 mi East 4.6 mph - N/A   Clear
11:55 AM 40.1 °F 36.9 °F 5.5 °F 24% 30.57 in 10.0 mi East 4.6 mph - N/A   Clear
12:15 PM 41.0 °F 39.0 °F 7.0 °F 25% 30.55 in 10.0 mi NE 3.5 mph - N/A   Clear
12:35 PM 42.4 °F 40.7 °F 4.6 °F 21% 30.53 in 10.0 mi ESE 3.5 mph - N/A   Clear
12:55 PM 43.9 °F 41.3 °F 3.9 °F 19% 30.52 in 10.0 mi East 4.6 mph - N/A   Clear
1:15 PM 44.1 °F 40.8 °F 3.6 °F 19% 30.51 in 10.0 mi East 5.8 mph - N/A   Clear
1:35 PM 45.1 °F - 2.7 °F 17% 30.50 in 10.0 mi Calm Calm - N/A   Clear
1:55 PM 46.2 °F 43.3 °F 3.6 °F 17% 30.50 in 10.0 mi East 5.8 mph - N/A   Clear
2:15 PM 46.4 °F 45.2 °F 5.5 °F 19% 30.50 in 10.0 mi NE 3.5 mph - N/A   Clear
2:35 PM 46.9 °F - 5.5 °F 18% 30.50 in 10.0 mi East 5.8 mph - N/A   Clear
2:55 PM 47.8 °F - 3.7 °F 16% 30.49 in 10.0 mi ENE 3.5 mph - N/A   Clear
3:15 PM 48.2 °F - 3.9 °F 16% 30.49 in 10.0 mi Calm Calm - N/A   Clear
3:35 PM 48.4 °F - 4.5 °F 17% 30.49 in 10.0 mi Calm Calm - N/A   Scattered Clouds
3:55 PM 48.9 °F - 3.9 °F 16% 30.49 in 10.0 mi East 4.6 mph - N/A   Scattered Clouds
4:15 PM 48.6 °F - 5.9 °F 18% 30.49 in 10.0 mi Calm Calm - N/A   Clear
4:35 PM 46.8 °F - 9.3 °F 22% 30.49 in 10.0 mi East 4.6 mph - N/A   Clear
4:55 PM 47.3 °F - 7.7 °F 20% 30.49 in 10.0 mi East 4.6 mph - N/A   Scattered Clouds
5:15 PM 46.6 °F - 10.0 °F 23% 30.50 in 10.0 mi East 3.5 mph - N/A   Scattered Clouds
5:35 PM 45.5 °F - 12.4 °F 26% 30.50 in 10.0 mi Calm Calm - N/A   Mostly Cloudy
5:55 PM 43.2 °F - 17.2 °F 35% 30.50 in 10.0 mi Calm Calm - N/A   Mostly Cloudy
6:15 PM 40.3 °F - 16.2 °F 38% 30.50 in 10.0 mi Calm Calm - N/A   Scattered Clouds
6:35 PM 38.7 °F - 19.9 °F 47% 30.50 in 10.0 mi Calm Calm - N/A   Scattered Clouds
6:55 PM 38.3 °F - 20.7 °F 49% 30.50 in 10.0 mi Calm Calm - N/A   Mostly Cloudy
7:15 PM 40.1 °F 38.0 °F 15.4 °F 37% 30.50 in 10.0 mi ENE 3.5 mph - N/A   Mostly Cloudy
7:35 PM 41.0 °F 38.0 °F 15.8 °F 36% 30.50 in 10.0 mi ENE 4.6 mph - N/A   Mostly Cloudy
7:55 PM 42.8 °F 41.1 °F 12.6 °F 29% 30.50 in 10.0 mi East 3.5 mph - N/A   Overcast
8:15 PM 43.7 °F 42.1 °F 10.4 °F 26% 30.50 in 10.0 mi ENE 3.5 mph - N/A   Overcast
8:35 PM 43.9 °F 40.5 °F 11.5 °F 27% 30.50 in 10.0 mi ENE 5.8 mph - N/A   Overcast
8:55 PM 44.6 °F 42.2 °F 11.8 °F 27% 30.50 in 10.0 mi East 4.6 mph - N/A   Overcast
9:15 PM 44.4 °F 42.9 °F 13.8 °F 29% 30.50 in 10.0 mi ENE 3.5 mph - N/A   Overcast
9:35 PM 44.1 °F - 12.9 °F 28% 30.50 in 10.0 mi Calm Calm - N/A   Overcast
9:55 PM 44.1 °F 41.5 °F 13.5 °F 29% 30.50 in 10.0 mi ENE 4.6 mph - N/A   Overcast
10:15 PM 43.7 °F 41.1 °F 14.2 °F 30% 30.51 in 10.0 mi ENE 4.6 mph - N/A   Overcast
10:35 PM 42.6 °F 39.0 °F 14.2 °F 32% 30.50 in 10.0 mi East 5.8 mph - N/A   Mostly Cloudy
10:55 PM 42.3 °F 40.5 °F 13.8 °F 32% 30.50 in 10.0 mi East 3.5 mph - N/A   Mostly Cloudy
11:15 PM 42.1 °F 40.2 °F 14.7 °F 33% 30.50 in 10.0 mi East 3.5 mph - N/A   Overcast
11:35 PM 42.1 °F 40.2 °F 16.2 °F 35% 30.49 in 10.0 mi East 3.5 mph - N/A   Overcast
11:55 PM 42.3 °F 39.4 °F 16.3 °F 35% 30.49 in 10.0 mi East 4.6 mph - N/A   Overcast